EW9999 Weather Reports


time (UTC)temp
C
wind
direction
speed
KPH
gust
KPH
rain 1hr
cm
rain 24hr
cm
rain mn
cm
humidity
%
barometer
mb
20260506194117 12 58 6.4 19.3 0.00 0.00 0.00 32 1022.6
20260506193217 12 75 6.4 20.9 0.00 0.00 0.00 33 1022.7
20260506192317 12 74 6.4 14.5 0.00 0.00 0.00 35 1022.7
20260506191417 12 54 4.8 17.7 0.00 0.00 0.00 37 1022.7
20260506190518 11 67 6.4 19.3 0.00 0.00 0.00 39 1022.7
20260506185617 11 59 4.8 14.5 0.00 0.00 0.00 40 1022.7
20260506184717 11 70 8.0 20.9 0.00 0.00 0.00 40 1022.8
20260506183817 11 57 3.2 12.9 0.00 0.00 0.00 40 1022.7
20260506182917 11 58 4.8 20.9 0.00 0.00 0.00 41 1022.6
20260506182018 11 40 4.8 14.5 0.00 0.00 0.00 43 1022.5
20260506180218 11 58 4.8 16.1 0.00 0.00 0.00 45 1022.7
20260506174418 10 59 6.4 17.7 0.00 0.00 0.00 49 1022.5
20260506173518 10 62 4.8 20.9 0.00 0.00 0.00 51 1022.3
20260506172617 10 68 8.0 24.1 0.00 0.00 0.00 53 1022.2
20260506171718 10 58 9.7 25.7 0.00 0.00 0.00 53 1022.1
20260506170817 10 67 8.0 25.7 0.00 0.00 0.00 51 1022.0
20260506164117 11 117 3.2 16.1 0.00 0.00 0.00 51 1022.0
20260506163217 10 77 4.8 20.9 0.00 0.00 0.00 53 1021.9
20260506162318 10 79 4.8 16.1 0.00 0.00 0.00 52 1021.7
20260506161418 11 67 3.2 16.1 0.00 0.00 0.00 51 1021.8
20260506160517 10 84 3.2 16.1 0.00 0.00 0.00 52 1021.9
20260506155617 10 60 1.6 6.4 0.00 0.00 0.00 53 1021.2
20260506154717 10 70 3.2 16.1 0.00 0.00 0.00 53 1021.4
20260506145317 7 141 1.6 4.8 0.00 0.00 0.00 65 1021.0
20260506143517 5 275 1.6 11.3 0.00 0.00 0.00 75 1021.0
20260506140818 1 238 1.6 4.8 0.00 0.00 0.00 84 1020.8
20260506134118 0 216 1.6 9.7 0.00 0.00 0.00 85 1019.6
20260506133217 0 209 1.6 9.7 0.00 0.00 0.00 84 1019.3
20260506131417 0 222 1.6 6.4 0.00 0.00 0.00 83 1019.3
20260506125618 0 231 0.0 3.2 0.00 0.00 0.00 82 1019.0
20260506123817 0 220 1.6 4.8 0.00 0.00 0.00 82 1018.8
20260506122017 0 221 1.6 4.8 0.00 0.00 0.00 81 1018.8
20260506121117 0 220 1.6 4.8 0.00 0.00 0.00 81 1018.7
20260506120217 0 0 0.0 0.0 0.00 0.00 0.00 81 1018.7
20260506115317 0 227 0.0 3.2 0.00 0.00 0.00 80 1018.6
20260506114417 0 224 1.6 3.2 0.00 0.00 0.00 80 1018.7
20260506113517 0 220 1.6 3.2 0.00 0.00 0.00 80 1018.5
20260506111717 0 217 0.0 3.2 0.00 0.00 0.00 79 1018.5
20260506110817 0 232 0.0 3.2 0.00 0.00 0.00 79 1018.4
20260506105917 0 232 0.0 3.2 0.00 0.00 0.00 79 1018.4
20260506105017 0 233 0.0 3.2 0.00 0.00 0.00 78 1018.3
20260506104117 0 234 1.6 3.2 0.00 0.00 0.00 78 1018.3
20260506103217 0 227 1.6 3.2 0.00 0.00 0.00 77 1018.2
20260506102317 0 228 1.6 3.2 0.00 0.00 0.00 77 1017.9
20260506101418 0 228 1.6 3.2 0.00 0.00 0.00 76 1018.0
20260506100517 0 228 1.6 3.2 0.00 0.00 0.00 75 1017.9
20260506095617 1 226 1.6 1.6 0.00 0.00 0.00 75 1017.9
20260506094717 1 225 0.0 1.6 0.00 0.00 0.00 74 1017.8
20260506093817 1 213 0.0 3.2 0.00 0.00 0.00 74 1017.7
20260506092917 1 208 1.6 3.2 0.00 0.00 0.00 72 1017.7
20260506092017 1 206 1.6 3.2 0.00 0.00 0.00 72 1017.7
20260506091118 1 206 0.0 3.2 0.00 0.00 0.00 72 1017.7
20260506090217 2 207 0.0 3.2 0.00 0.00 0.00 72 1017.6
20260506085317 2 213 1.6 3.2 0.00 0.00 0.00 72 1017.8
20260506084417 2 190 1.6 4.8 0.00 0.00 0.00 72 1017.9
20260506083517 2 184 1.6 6.4 0.00 0.00 0.00 73 1017.8
20260506081717 2 218 1.6 6.4 0.00 0.00 0.00 71 1017.8
20260506073217 2 236 1.6 4.8 0.00 0.00 0.00 69 1017.7
20260506072318 2 233 1.6 4.8 0.00 0.00 0.00 69 1017.8
20260506071417 2 219 1.6 4.8 0.00 0.00 0.00 69 1017.8
20260506070517 1 193 1.6 8.0 0.00 0.00 0.00 69 1017.9
20260506062017 0 196 1.6 3.2 0.00 0.00 0.00 72 1017.2
20260506060217 0 211 1.6 4.8 0.00 0.00 0.00 71 1016.9
20260506050817 1 204 1.6 4.8 0.00 0.00 0.00 68 1016.6
20260506045018 1 200 1.6 6.4 0.00 0.00 0.00 67 1016.3
20260506044117 1 195 1.6 6.4 0.00 0.00 0.00 66 1016.1
20260506043217 2 186 1.6 4.8 0.00 0.00 0.00 65 1015.9
20260506042317 2 197 1.6 8.0 0.00 0.00 0.00 65 1015.7
20260506040517 2 204 1.6 4.8 0.00 0.00 0.00 64 1016.0
20260506035618 3 191 1.6 3.2 0.00 0.00 0.00 64 1015.7
20260506033817 3 229 1.6 3.2 0.00 0.00 0.00 63 1015.4
20260506032917 3 255 1.6 3.2 0.00 0.00 0.00 63 1015.2
20260506032018 4 270 1.6 3.2 0.00 0.00 0.00 62 1015.1
20260506031117 4 290 1.6 3.2 0.00 0.00 0.00 60 1014.9
20260506030217 5 0 0.0 0.0 0.00 0.00 0.00 58 1014.7
20260506015917 7 0 0.0 0.0 0.00 0.00 0.00 49 1014.1
20260506015017 7 0 0.0 0.0 0.00 0.00 0.00 46 1014.0
20260506014117 7 349 0.0 6.4 0.00 0.00 0.00 43 1014.0
20260506013218 7 36 1.6 8.0 0.00 0.00 0.00 41 1013.6
20260506012318 7 68 3.2 17.7 0.00 0.00 0.00 39 1013.6
20260506011417 8 292 1.6 4.8 0.00 0.00 0.00 39 1013.7
20260506010517 8 318 1.6 4.8 0.00 0.00 0.00 38 1013.7
20260506005617 8 329 1.6 8.0 0.00 0.00 0.00 37 1013.7
20260506003818 7 317 3.2 16.1 0.00 0.00 0.00 35 1013.4
20260506002917 7 59 3.2 12.9 0.00 0.00 0.00 39 1013.3
20260506002018 7 322 4.8 20.9 0.00 0.00 0.00 38 1013.2
20260506001118 7 46 8.0 22.5 0.00 0.00 0.00 38 1013.2
20260505235318 7 67 3.2 9.7 0.00 0.00 0.00 42 1012.9
20260505234417 7 55 1.6 9.7 0.00 0.00 0.00 43 1013.0
20260505233518 7 29 3.2 14.5 0.00 0.00 0.00 41 1013.0
20260505231718 8 127 1.6 9.7 0.00 0.00 0.00 43 1012.8
20260505230817 8 56 3.2 14.5 0.00 0.00 0.00 43 1013.0
20260505225917 8 22 3.2 14.5 0.00 0.00 0.00 45 1013.1
20260505223217 8 64 3.2 11.3 0.00 0.00 0.00 45 1013.3
20260505222318 7 77 3.2 16.1 0.00 0.00 0.00 46 1013.2
20260505221417 7 356 3.2 12.9 0.00 0.00 0.00 48 1013.1
20260505220518 7 359 1.6 14.5 0.00 0.00 0.00 48 1013.3
20260505215617 7 357 1.6 16.1 0.00 0.00 0.00 47 1013.4
20260505213817 6 58 1.6 4.8 0.00 0.00 0.00 51 1013.0
20260505212917 6 22 3.2 12.9 0.00 0.00 0.00 51 1013.1
20260505212017 6 13 3.2 12.9 0.00 0.00 0.00 52 1013.0
20260505211117 6 22 3.2 17.7 0.00 0.00 0.00 52 1013.1
20260505210218 6 5 1.6 12.9 0.00 0.00 0.00 51 1013.0
20260505205317 6 25 1.6 12.9 0.00 0.00 0.00 52 1013.4
20260505204417 6 57 1.6 11.3 0.00 0.00 0.00 52 1013.3
20260505203517 6 4 3.2 16.1 0.00 0.00 0.00 52 1013.1
20260505202617 6 23 1.6 9.7 0.00 0.00 0.00 52 1013.0
20260505201717 6 20 1.6 9.7 0.00 0.00 0.00 52 1013.0
20260505200817 6 16 1.6 14.5 0.00 0.00 0.00 53 1013.2